Temp
12 12 11 11 12 11 11 11 12 11 10 10 10 9 9 9 10 10 9 10 9 10
9 9 10 10 11 11 10 11 11 11 10 9 8 8 9 9 9 9 9 9 8 9
9 8 8 9 9 10 10 10 10 9 9 9 8 9 9 9 9 9 8 8 8 7
8 9 10 9 9 9 9 9 8 8 8 8 8 8 8 8 7 7 7 5 6 6
6 6 6 7 8 8 8 7 7 7 7 7 7 6 6 5 5 5 3 4 4 5
5 5 5 5 5 6 6 6 5 5 5 5 4 4 3 3 3 3 4 4 4 4
4 5 5 4 4 4 4 4 4 3 3 2 2 2 2 3 2 2 2 2 2 3
3 4 3 3 2 3 3 3 3 2 2 2 2 2 2 2 2 2 1 1 2 2
3 2 2 2 2 2 1 1 1 1 1 1 2 2 2 1 0 0 0 -0 -0 -0
2 2 1 1 1 1 0 1 1 1 1 0 -0 0 -0 -0 -0 -0 -1 -1 -2 -3
2 1 1 2 1 0 0 0 0 0 -0 -0 -1 -1 -0 -1 -1 -2 -2 -3 -3 -3
2 2 1 0 0 -0 -0 -0 -1 -0 -0 -1 -2 -1 -1 -1 -3 -4 -4 -4 -3 -3
2 2 1 1 1 0 -0 -1 -1 -2 -1 -2 -3 -2 -2 -2 -3 -4 -4 -4 -4 -3
2 2 2 2 1 0 -1 -1 -1 -2 -2 -2 -3 -3 -3 -3 -4 -4 -5 -5 -5 -5
Height
742 739 737 736 734 733 731 728 730 733 734 734 740 744 751 756 761 766 769 776 783 785
743 741 737 734 732 729 729 725 726 726 726 728 730 736 740 747 751 759 767 768 773 781
738 735 733 730 730 725 723 721 722 723 721 721 725 727 733 737 742 746 755 760 767 777
734 732 729 725 723 722 722 720 718 718 716 717 718 720 725 730 733 738 744 755 757 767
731 730 728 724 721 718 718 717 717 716 714 713 713 715 717 723 728 733 739 745 754 762
725 725 725 723 721 719 715 714 713 715 715 711 711 711 715 720 725 730 735 744 748 752
722 722 721 721 719 717 718 716 713 713 717 718 715 716 717 721 729 734 735 743 747 753
720 720 720 719 721 716 716 717 714 713 718 716 718 721 724 730 732 735 741 747 752 754
719 720 720 718 717 715 718 719 718 721 721 721 722 727 731 730 738 741 742 750 754 760
719 719 718 718 719 719 721 720 721 724 724 726 728 731 732 731 743 745 746 751 757 764
719 720 717 717 719 721 722 723 724 726 728 730 732 735 734 739 748 747 751 756 762 767
714 718 720 721 720 722 724 726 728 730 732 733 735 737 741 743 750 751 758 762 765 768
714 717 720 719 719 722 726 727 729 731 734 737 740 742 743 747 751 755 758 761 768 773
713 715 717 717 720 723 726 728 730 732 735 736 740 743 745 749 753 758 763 765 771 774
Wind_Speed
15 17 18 21 21 22 24 26 28 29 34 35 35 33 32 32 36 38 32 29 26 28
15 14 17 23 26 26 25 29 30 30 32 35 33 33 32 31 31 30 28 26 24 30
17 15 15 17 22 26 28 28 28 30 32 33 33 33 35 37 36 35 34 33 30 31
14 15 16 16 19 24 27 28 29 31 32 34 35 36 38 37 37 38 37 35 35 32
10 11 12 13 15 18 23 26 28 31 32 34 36 37 37 37 37 39 37 36 35 28
9 8 9 9 11 13 14 18 18 20 22 28 31 30 30 32 35 37 38 36 32 30
7 6 6 7 7 6 9 10 10 12 13 14 17 21 29 32 29 26 27 26 26 27
7 5 3 1 2 3 2 5 6 11 14 18 20 20 21 20 23 22 22 21 20 21
6 4 3 2 2 4 3 8 12 13 15 16 18 18 16 19 18 21 22 20 16 15
5 6 5 5 5 6 9 11 13 15 16 13 11 11 13 13 20 21 20 21 21 16
8 5 6 6 6 7 8 11 13 12 11 13 12 9 10 16 18 19 18 17 17 18
9 8 7 9 9 8 10 12 14 14 14 15 16 14 16 18 17 19 17 15 14 14
13 13 13 11 9 8 8 9 10 12 13 16 17 16 18 20 19 18 14 12 12 14
14 14 12 10 9 10 9 9 9 9 10 12 13 14 15 19 19 20 18 14 13 13
Wind_Direction
297 291 284 278 269 260 251 247 251 244 233 222 219 213 212 212 212 209 200 201 211 209
313 306 296 286 280 267 258 255 250 242 231 220 212 209 204 200 196 197 204 207 216 224
303 302 303 297 284 269 264 252 239 235 226 215 211 209 203 195 199 203 207 211 210 211
290 294 293 290 286 274 267 256 240 229 218 210 203 200 198 201 197 197 196 200 198 196
275 287 290 287 277 269 268 258 249 241 225 216 206 201 196 190 187 183 176 178 177 178
251 268 289 300 296 283 268 262 254 240 225 208 198 185 178 175 172 171 173 183 186 183
246 260 281 302 301 302 295 272 240 217 208 190 170 164 166 167 167 171 174 183 185 185
220 228 232 232 284 26 278 238 207 175 162 154 152 153 154 154 162 162 160 167 172 174
195 200 193 125 126 94 149 156 150 151 147 146 142 157 162 167 177 174 166 162 163 167
185 177 145 113 104 119 144 151 146 151 148 145 150 180 176 160 175 162 155 152 149 141
178 176 129 113 122 132 142 146 146 144 151 146 145 163 156 164 163 146 143 142 146 148
153 157 149 149 133 133 138 140 139 142 147 146 141 157 160 150 138 129 130 136 137 145
172 169 171 154 136 146 159 149 143 140 145 148 145 155 155 152 136 132 132 130 138 157
173 173 170 153 160 170 165 156 145 141 151 149 148 146 153 160 154 150 144 137 141 147